This is the latest recevied weather packets stored in our database for station/object CE3TDM-12. If no packets are shown the sender has not sent any weather packets the latest 10 day(s).
| Time | Temp. | Humidity | Pressure | Rain* | Wind** | Luminosity | Snow |
|---|---|---|---|---|---|---|---|
| 1787856252 | 11.11° C | 50% | 770.2 hPa | - | - | - | - |
| 1787855951 | 10° C | 52% | 770.2 hPa | - | - | - | - |
| 1787855651 | 9.44° C | 53% | 770.6 hPa | - | - | - | - |
| 1787855350 | 10° C | 52% | 770.1 hPa | - | - | - | - |
| 1787855049 | 11.11° C | 52% | 770.1 hPa | - | - | - | - |
| 1787854749 | 10.56° C | 53% | 770.3 hPa | - | - | - | - |
| 1787854448 | 10.56° C | 52% | 770.4 hPa | - | - | - | - |
| 1787854148 | 11.67° C | 50% | 770.6 hPa | - | - | - | - |
| 1787853847 | 11.11° C | 51% | 770.4 hPa | - | - | - | - |
| 1787853547 | 10.56° C | 53% | 770.3 hPa | - | - | - | - |
| 1787853247 | 10.56° C | 53% | 770.2 hPa | - | - | - | - |
| 1787852946 | 11.11° C | 52% | 770.6 hPa | - | - | - | - |
| 1787852646 | 12.22° C | 51% | 770.3 hPa | - | - | - | - |
| 1787852345 | 12.22° C | 52% | 769.9 hPa | - | - | - | - |
| 1787852045 | 11.67° C | 52% | 770.3 hPa | - | - | - | - |
| 1787851744 | 11.67° C | 53% | 770.3 hPa | - | - | - | - |
| 1787851444 | 12.22° C | 52% | 770 hPa | - | - | - | - |
| 1787851143 | 12.78° C | 51% | 770.6 hPa | - | - | - | - |
| 1787850843 | 13.33° C | 51% | 770.6 hPa | - | - | - | - |
| 1787850543 | 12.78° C | 50% | 770.5 hPa | - | - | - | - |
| 1787850242 | 12.78° C | 50% | 770.7 hPa | - | - | - | - |
| 1787849942 | 12.78° C | 50% | 770.9 hPa | - | - | - | - |
| 1787849641 | 12.78° C | 50% | 770.4 hPa | - | - | - | - |
| 1787849341 | 12.78° C | 50% | 770.6 hPa | - | - | - | - |
| 1787849040 | 12.78° C | 50% | 770.7 hPa | - | - | - | - |
* Rain since midnight (hover to see other rain measurements)
** Current wind speed in m/s (hover to see current wind gust speed)